Weather reports worldwide

Advertisment
Aguilas, Spain (8432): temperature & dewpoint: 16.06.2018 15:00:00 - 22.06.2018 15:00:00 (CEST)Aguilas, Spain (8432): wind speed & gusts: 16.06.2018 15:00:00 - 22.06.2018 15:00:00 (CEST)Aguilas, Spain (8432): wind direction: 16.06.2018 15:00:00 - 22.06.2018 15:00:00 (CEST)Aguilas, Spain (8432): reduced air pressure: 16.06.2018 15:00:00 - 22.06.2018 15:00:00 (CEST)Aguilas, Spain (8432): visibility: 16.06.2018 15:00:00 - 22.06.2018 15:00:00 (CEST)Aguilas, Spain (8432): sunshine duration: 16.06.2018 15:00:00 - 22.06.2018 15:00:00 (CEST)Aguilas, Spain (8432): precipitation: 16.06.2018 15:00:00 - 22.06.2018 15:00:00 (CEST)
Date & Time tt [°C] td [°C] ff [km/h] ff [kn] fx [km/h] fx [kn] dd ppp [hPa] vv [km] sd [min] rr [mm]
22.06.2018 15:00:00 - - - - - - - - - - -
22.06.2018 14:00:00 27,5 14,5 11 6 22 12 SSE 1017,7 20 60 -
22.06.2018 13:00:00 29,5 11,6 9 5 24 13 SSE 1016,7 16 60 0,0
22.06.2018 12:00:00 29,6 9,7 13 7 23 13 SE 1016,9 20 60 0,0
22.06.2018 11:00:00 28,6 11,2 11 6 20 11 SE 1016,8 18 60 0,0
22.06.2018 10:00:00 27,8 10,9 5 3 10 5 S 1017,0 20 60 0,0
22.06.2018 09:00:00 27,6 8,9 3 1 6 3 S 1017,1 20 60 0,0
22.06.2018 08:00:00 24,3 9,0 1 1 6 3 ENE 1016,8 20 51 -
22.06.2018 07:00:00 21,5 10,6 1 1 10 5 W 1016,7 20 0 0,0
22.06.2018 06:00:00 20,5 11,1 4 2 6 4 N 1016,7 20 0 0,0
22.06.2018 05:00:00 20,9 11,0 0 0 8 4 N 1016,7 20 0 0,0
22.06.2018 04:00:00 21,9 11,6 5 3 8 4 NE 1016,8 20 0 0,0
22.06.2018 03:00:00 21,4 12,0 4 2 6 3 N 1017,3 20 0 0,0
22.06.2018 02:00:00 22,0 12,0 3 1 9 5 NNE 1017,7 20 0 -
22.06.2018 01:00:00 22,3 11,7 4 2 9 5 NW 1017,9 20 0 0,0
22.06.2018 00:00:00 22,9 12,5 6 3 9 5 WNW 1017,8 20 0 0,0
21.06.2018 23:00:00 24,1 12,7 2 1 15 8 NNE 1017,5 20 0 0,0
21.06.2018 22:00:00 24,9 11,8 11 6 18 10 ESE 1016,4 20 0 0,0
21.06.2018 21:00:00 26,8 10,0 12 7 20 11 E 1016,3 20 54 0,0
21.06.2018 20:00:00 27,1 12,7 12 6 21 11 SE 1016,4 20 60 -
21.06.2018 19:00:00 27,6 13,2 13 7 21 12 SE 1016,6 20 60 0,0
21.06.2018 18:00:00 28,3 13,1 13 7 29 15 ESE 1017,0 20 60 0,0
21.06.2018 17:00:00 27,8 14,0 14 8 32 17 SE 1017,2 20 60 0,0
21.06.2018 16:00:00 27,9 13,8 16 8 29 16 SSE 1017,5 20 60 0,0
21.06.2018 15:00:00 27,2 17,1 14 7 35 19 ESE 1017,7 20 60 0,0
21.06.2018 14:00:00 27,6 16,0 19 11 35 19 SE 1017,5 20 60 -
21.06.2018 13:00:00 28,1 15,7 21 12 36 19 ESE 1017,8 20 60 0,0
21.06.2018 12:00:00 28,4 15,7 18 10 36 19 SE 1017,5 20 60 0,0
21.06.2018 11:00:00 27,7 12,8 13 7 22 12 SE 1017,3 20 60 0,0
21.06.2018 10:00:00 26,6 12,6 7 4 12 7 S 1018,5 20 60 0,0
21.06.2018 09:00:00 26,0 10,5 3 1 6 4 SSW 1017,8 20 60 0,0
21.06.2018 08:00:00 23,1 10,9 2 1 6 4 NNE 1017,6 20 52 -
21.06.2018 07:00:00 20,4 10,5 3 1 8 4 N 1017,2 20 0 0,0
21.06.2018 06:00:00 20,7 10,5 1 1 9 5 NE 1017,0 20 0 0,0
21.06.2018 05:00:00 21,1 10,3 5 3 8 4 NNW 1016,9 20 0 0,0
21.06.2018 04:00:00 21,6 10,8 4 2 13 7 NNW 1017,1 20 0 0,0
21.06.2018 03:00:00 22,0 10,8 3 2 7 4 NNE 1017,3 20 0 0,0
21.06.2018 02:00:00 22,0 12,0 4 2 8 4 N 1017,5 20 0 -
21.06.2018 01:00:00 22,4 13,5 5 3 8 4 NNW 1017,9 20 0 0,0
21.06.2018 00:00:00 22,8 15,6 4 2 8 4 N 1018,1 20 0 0,0
20.06.2018 23:00:00 23,1 15,9 2 1 11 6 WSW 1018,0 20 0 0,0
20.06.2018 22:00:00 23,6 16,1 8 4 18 10 E 1017,6 20 0 0,0
20.06.2018 21:00:00 24,8 15,4 11 6 23 13 E 1017,3 20 56 0,0
20.06.2018 20:00:00 26,2 14,3 12 6 22 12 ESE 1017,1 20 60 -
20.06.2018 19:00:00 26,0 15,1 11 6 25 13 SSE 1017,0 20 60 0,0
20.06.2018 18:00:00 26,8 13,9 18 10 29 15 ESE 1017,3 20 60 0,0
20.06.2018 17:00:00 27,6 14,2 16 9 35 19 ESE 1017,5 20 60 0,0
20.06.2018 16:00:00 26,1 15,4 21 11 34 18 SE 1017,9 20 60 0,0
20.06.2018 15:00:00 26,3 15,3 21 11 37 20 SE 1018,4 20 60 0,0
20.06.2018 14:00:00 26,7 13,5 23 12 36 19 SE 1018,9 20 60 -
20.06.2018 13:00:00 27,1 11,6 21 12 35 19 SE 1019,1 20 60 0,0
20.06.2018 12:00:00 28,0 9,8 21 11 39 21 ESE 1019,0 20 60 0,0
20.06.2018 11:00:00 28,1 9,4 17 9 31 17 E 1019,1 20 60 0,0
20.06.2018 10:00:00 27,8 9,2 12 7 23 12 E 1020,0 20 60 0,0
20.06.2018 09:00:00 26,6 9,4 9 5 22 12 E 1019,2 20 60 0,0
20.06.2018 08:00:00 23,1 11,2 3 2 7 4 NNW 1018,9 20 52 -
20.06.2018 07:00:00 20,6 10,6 4 2 8 4 NE 1018,8 20 0 0,0
20.06.2018 06:00:00 20,2 10,9 3 1 8 4 N 1018,6 20 0 0,0
20.06.2018 05:00:00 21,0 10,8 4 2 9 5 N 1018,8 20 0 0,0
20.06.2018 04:00:00 21,2 11,2 5 3 8 4 N 1019,3 20 0 0,0
20.06.2018 03:00:00 21,6 10,8 1 1 7 4 N 1019,6 20 0 0,0
20.06.2018 02:00:00 22,3 11,3 4 2 7 4 NE 1019,9 20 0 -
20.06.2018 01:00:00 22,1 11,8 2 1 5 3 E 1020,1 20 0 0,0
20.06.2018 00:00:00 22,7 12,0 4 2 8 4 NNW 1020,4 20 0 0,0
19.06.2018 23:00:00 23,4 12,1 5 3 14 8 ENE 1020,4 20 0 0,0
19.06.2018 22:00:00 23,8 12,1 6 4 18 10 ENE 1020,0 20 0 0,0
19.06.2018 21:00:00 24,9 12,1 12 7 22 12 E 1019,8 20 56 0,0
19.06.2018 20:00:00 25,7 11,8 15 8 29 16 ESE 1019,8 20 60 -
19.06.2018 19:00:00 25,9 12,7 15 8 26 14 ESE 1019,9 20 60 0,0
19.06.2018 18:00:00 25,4 13,9 14 8 28 15 SE 1020,4 20 60 0,0
19.06.2018 17:00:00 25,9 13,8 14 7 27 15 SE 1020,7 20 60 0,0
19.06.2018 16:00:00 26,4 13,2 14 8 28 15 ESE 1021,0 20 60 0,0
19.06.2018 15:00:00 26,4 11,7 19 10 34 19 SE 1021,2 20 60 0,0
19.06.2018 14:00:00 26,7 11,6 18 10 33 18 SE 1021,6 20 60 -
19.06.2018 13:00:00 27,0 11,9 19 11 35 19 ESE 1021,8 20 60 0,0
19.06.2018 12:00:00 26,8 10,9 21 11 35 19 SE 1022,2 20 60 0,0
19.06.2018 11:00:00 27,5 9,8 16 9 34 18 ESE 1022,7 20 60 0,0
19.06.2018 10:00:00 26,7 9,6 14 8 29 16 E 1022,0 20 60 0,0
19.06.2018 09:00:00 26,7 9,6 13 7 23 12 E 1021,6 20 60 0,0
19.06.2018 08:00:00 23,0 10,4 2 1 9 5 NNW 1021,3 20 52 -
19.06.2018 07:00:00 19,9 9,4 1 1 6 3 NNE 1021,0 20 0 0,0
19.06.2018 06:00:00 20,0 9,6 2 1 5 3 N 1020,5 20 0 0,0
19.06.2018 05:00:00 21,3 9,2 4 2 10 5 NE 1020,1 20 0 0,0
19.06.2018 04:00:00 20,4 12,1 3 1 8 4 NNW 1020,1 20 0 0,0
19.06.2018 03:00:00 21,2 15,1 4 2 8 5 N 1020,2 20 0 0,0
19.06.2018 02:00:00 21,6 16,7 5 3 10 6 E 1020,3 20 0 -
19.06.2018 01:00:00 21,9 15,7 4 2 7 4 ESE 1020,2 20 0 0,0
19.06.2018 00:00:00 22,3 15,9 3 1 8 4 E 1020,2 20 0 0,0
18.06.2018 23:00:00 22,7 15,8 4 2 10 5 E 1020,0 20 0 0,0
18.06.2018 22:00:00 23,0 15,6 6 3 17 9 E 1019,5 20 0 0,0
18.06.2018 21:00:00 24,1 15,3 10 5 28 15 E 1019,2 20 53 0,0
18.06.2018 20:00:00 25,3 14,7 18 10 28 15 E 1018,8 20 60 -
18.06.2018 19:00:00 26,3 14,0 14 8 29 16 ESE 1018,5 20 60 0,0
18.06.2018 18:00:00 27,8 12,2 16 9 30 16 ESE 1018,7 20 60 0,0
18.06.2018 17:00:00 27,7 12,5 16 9 32 17 ESE 1019,2 20 60 0,0
18.06.2018 16:00:00 27,4 11,8 19 10 32 18 SE 1019,6 20 60 0,0
18.06.2018 15:00:00 27,4 11,4 18 10 31 17 SE 1020,0 20 60 0,0
18.06.2018 14:00:00 26,8 13,6 21 11 32 17 SE 1020,4 20 60 -
18.06.2018 13:00:00 27,0 11,1 17 9 28 15 SE 1020,6 20 60 0,0
18.06.2018 12:00:00 27,3 12,5 12 7 21 12 SE 1020,8 20 60 0,0
18.06.2018 11:00:00 25,8 12,2 11 6 19 10 SE 1021,1 20 60 0,0
18.06.2018 10:00:00 26,8 10,5 6 3 11 6 SSE 1019,7 20 60 0,0
18.06.2018 09:00:00 26,1 9,8 3 2 11 6 WSW 1020,3 20 60 0,0
18.06.2018 08:00:00 22,3 9,4 4 2 6 4 WNW 1020,2 20 52 -
18.06.2018 07:00:00 20,1 9,9 2 1 7 4 SW 1020,2 20 0 0,0
18.06.2018 06:00:00 21,0 9,6 5 3 8 4 NNE 1019,6 20 0 0,0
18.06.2018 05:00:00 20,7 8,9 0 0 8 4 N 1019,8 20 0 0,0
18.06.2018 04:00:00 21,6 9,8 5 3 9 5 NE 1019,6 20 0 0,0
18.06.2018 03:00:00 21,4 10,5 4 2 6 4 N 1019,8 20 0 0,0
18.06.2018 02:00:00 21,9 10,6 1 1 7 4 NNW 1019,8 20 0 -
18.06.2018 01:00:00 22,7 11,8 3 2 8 4 ENE 1020,1 20 0 0,0
18.06.2018 00:00:00 22,9 11,9 6 3 9 5 E 1020,2 20 0 0,0
17.06.2018 23:00:00 23,3 12,8 6 3 12 7 ENE 1020,3 20 0 0,0
17.06.2018 22:00:00 24,3 12,5 5 3 12 7 SSE 1019,9 20 0 0,0
17.06.2018 21:00:00 25,3 12,2 9 5 16 9 ESE 1019,3 20 53 0,0
17.06.2018 20:00:00 26,1 11,1 10 5 21 11 SSE 1019,3 20 60 -
17.06.2018 19:00:00 26,1 12,2 13 7 24 13 SE 1019,4 20 60 0,0
17.06.2018 18:00:00 26,6 10,8 14 8 29 16 SE 1019,2 20 60 0,0
17.06.2018 17:00:00 27,2 9,6 19 11 30 16 SE 1019,3 20 60 0,0
17.06.2018 16:00:00 28,4 9,2 15 8 30 16 ESE 1019,4 20 60 0,0
17.06.2018 15:00:00 27,7 8,5 16 8 31 17 SE 1019,5 20 60 0,0
17.06.2018 14:00:00 27,1 14,8 15 8 30 16 ESE 1019,7 20 60 -
17.06.2018 13:00:00 28,5 10,6 19 10 33 18 ESE 1019,6 20 60 0,0
17.06.2018 12:00:00 29,3 6,1 23 13 34 18 ESE 1018,8 20 60 0,0
17.06.2018 11:00:00 28,5 5,3 15 8 26 14 SE 1018,6 20 60 0,0
17.06.2018 10:00:00 27,2 6,1 7 4 13 7 SSE 1018,6 20 60 0,0
17.06.2018 09:00:00 26,5 5,5 0 0 4 2 N 1018,6 20 60 0,0
17.06.2018 08:00:00 22,1 6,4 1 1 6 3 WNW 1017,9 20 51 -
17.06.2018 07:00:00 20,0 4,1 3 1 8 4 NE 1017,6 20 0 0,0
17.06.2018 06:00:00 20,1 5,0 3 2 8 4 N 1017,2 20 0 0,0
17.06.2018 05:00:00 20,2 6,8 0 0 9 5 N 1017,0 20 0 0,0
17.06.2018 04:00:00 21,0 6,1 3 2 9 5 N 1016,9 20 0 0,0
17.06.2018 03:00:00 21,2 7,4 2 1 6 4 NNE 1016,9 20 0 0,0
17.06.2018 02:00:00 21,2 8,5 2 1 11 6 E 1016,6 20 0 -
17.06.2018 01:00:00 22,4 8,5 2 1 5 3 N 1016,6 20 0 0,0
17.06.2018 00:00:00 23,0 7,8 2 1 7 4 NE 1016,6 20 0 0,0
16.06.2018 23:00:00 23,3 8,5 5 3 10 6 E 1016,2 20 0 0,0
16.06.2018 22:00:00 23,5 11,2 6 3 18 10 E 1015,5 20 0 0,0
16.06.2018 21:00:00 24,6 12,8 9 5 17 9 ESE 1014,9 20 35 0,0
16.06.2018 20:00:00 25,2 11,0 11 6 20 11 SE 1014,7 20 60 -
16.06.2018 19:00:00 25,5 13,1 14 8 22 12 SE 1014,4 20 60 0,0
16.06.2018 18:00:00 26,0 12,8 16 8 27 15 SE 1014,7 20 60 0,0
16.06.2018 17:00:00 26,0 12,4 19 10 31 17 SE 1014,7 20 60 0,0
16.06.2018 16:00:00 27,1 10,3 19 10 29 16 ESE 1015,0 20 60 0,0
16.06.2018 15:00:00 27,4 7,8 19 10 28 15 SE 1015,1 20 60 0,0

tt = temperature
td = dewpoint
ff = wind speed
fx = gusts
dd = wind direction
ppp = reduced air pressure
vv = visibility
sd = sunshine duration
rr = precipitation

Next stations